Flag Weather past 2 weeks in Sedona, Arizona, U.S.A.

Now
54 °F

Clear.


Feels Like: 50 °F
Forecast: 51 / 71 °F
Wind: 13 mph from Northeast

Location: Sedona Airport

Current Time: Nov 27, 2014 at 5:12:39 AM

Latest Report: Nov 27, 2014 at 4:35 AM


Visibility: 10 mi

Pressure: 30.36 "Hg

Humidity: 24%

Dew point: 18 °F

Location of SedonaLocation

Historic Weather in Sedona — Graph

°F

Sedona temperature yesterday

Maximum temperature yesterday: 70 °F (at 2:55 PM)
Minimum temperature yesterday: 43 °F (at 5:15 AM)
Average temperature yesterday: 55 °F

Past Weeks' High & Low Weather Summary

 TemperatureHumidityPressure
High70 °F (Nov 26, 2:55 PM)93% (Nov 15, 2:35 AM)30.48 "Hg (Nov 15, 2:35 AM)
Low34 °F (Nov 24, 3:15 AM)9% (Nov 16, 1:15 PM)29.94 "Hg (Nov 16, 12:15 AM)
Average50 °F33%30.16 "Hg
* Reported Nov 12 3:15 AM — Nov 27 3:55 AM, Sedona, Weather by CustomWeather, © 2014

Note: Actual official high and low records may vary slightly from our data, if they occured in-between our weather recording intervals... More about our weather records

Advertising

Sedona weather history for previous 24 hours

 ConditionsComfort  
Time TempWeatherWind HumidityBarometerVisibility
3:55 AM
Nov 27
54 °FClear.12 mph26%30.36 "Hg10 mi
3:35 AM54 °FClear.13 mph26%30.36 "Hg10 mi
3:15 AM54 °FClear.12 mph24%30.37 "Hg10 mi
2:55 AM54 °FClear.14 mph24%30.37 "Hg10 mi
2:35 AM52 °FClear.14 mph26%30.38 "Hg10 mi
2:15 AM54 °FClear.14 mph24%30.38 "Hg10 mi
1:55 AM54 °FClear.14 mph24%30.38 "Hg10 mi
1:15 AM52 °FClear.10 mph26%30.38 "Hg10 mi
12:55 AM54 °FClear.14 mph24%30.38 "Hg10 mi
12:35 AM54 °FClear.14 mph24%30.38 "Hg10 mi
12:15 AM54 °FClear.9 mph24%30.38 "Hg10 mi
11:55 PM
Nov 26
54 °FClear.13 mph22%30.38 "Hg10 mi
11:35 PM55 °FClear.12 mph21%30.38 "Hg10 mi
11:15 PM57 °FClear.12 mph20%30.38 "Hg10 mi
10:55 PM57 °FClear.14 mph20%30.38 "Hg10 mi
10:35 PM57 °FClear.15 mph20%30.38 "Hg10 mi
10:15 PM55 °FClear.13 mph23%30.38 "Hg10 mi
9:55 PM59 °FClear.12 mph18%30.39 "Hg10 mi
9:35 PM59 °FClear.13 mph17%30.38 "Hg10 mi
9:15 PM59 °FClear.15 mph18%30.37 "Hg10 mi
8:55 PM59 °FClear.16 mph18%30.36 "Hg10 mi
8:35 PM59 °FClear.14 mph18%30.36 "Hg10 mi
8:15 PM59 °FClear.13 mph17%30.36 "Hg10 mi
7:55 PM59 °FClear.10 mph18%30.36 "Hg10 mi
7:15 PM61 °FClear.13 mph19%30.34 "Hg10 mi
6:55 PM61 °FClear.10 mph20%30.35 "Hg10 mi
6:15 PM63 °FClear.12 mph17%30.34 "Hg10 mi
5:55 PM63 °FClear.10 mph17%30.34 "Hg10 mi
5:15 PM64 °FSunny.No wind19%30.33 "Hg10 mi
4:35 PM68 °FSunny.No wind17%30.33 "Hg10 mi
4:15 PM68 °FSunny.3 mph17%30.33 "Hg10 mi
3:55 PM70 °FSunny.No wind17%30.32 "Hg10 mi
3:15 PM70 °FSunny.5 mph17%30.33 "Hg10 mi
2:55 PM70 °FSunny.No wind17%30.33 "Hg10 mi
2:15 PM68 °FSunny.3 mph18%30.33 "Hg10 mi
1:55 PM68 °FSunny.3 mph17%30.34 "Hg10 mi
1:35 PM66 °FSunny.No wind18%30.35 "Hg10 mi
1:15 PM66 °FSunny.No wind18%30.35 "Hg10 mi
12:55 PM66 °FSunny.No wind18%30.36 "Hg10 mi
12:15 PM63 °FSunny.5 mph20%30.38 "Hg10 mi
11:55 AM61 °FSunny.6 mph22%30.39 "Hg10 mi
11:35 AM61 °FSunny.No wind22%30.40 "Hg10 mi
11:15 AM63 °FSunny.6 mph20%30.41 "Hg10 mi
10:55 AM59 °FSunny.No wind23%30.42 "Hg10 mi
10:35 AM57 °FSunny.5 mph27%30.42 "Hg10 mi
10:15 AM54 °FSunny.3 mph30%30.42 "Hg10 mi
9:55 AM54 °FSunny.No wind28%30.42 "Hg10 mi
9:35 AM52 °FSunny.No wind30%30.42 "Hg10 mi
9:15 AM50 °FSunny.No wind32%30.41 "Hg10 mi
8:55 AM50 °FSunny.No wind35%30.41 "Hg10 mi
8:35 AM46 °FSunny.6 mph40%30.41 "Hg10 mi
8:15 AM48 °FSunny.6 mph37%30.40 "Hg10 mi
7:55 AM46 °FSunny.No wind40%30.40 "Hg10 mi
7:35 AM45 °FSunny.5 mph39%30.40 "Hg10 mi
7:15 AM45 °FSunny.5 mph37%30.40 "Hg10 mi
6:55 AM45 °FClear.5 mph34%30.39 "Hg10 mi
6:35 AM45 °FClear.No wind34%30.38 "Hg10 mi
6:15 AM45 °FClear.6 mph39%30.36 "Hg10 mi
5:55 AM45 °FClear.6 mph37%30.36 "Hg10 mi
5:35 AM45 °FClear.8 mph39%30.35 "Hg10 mi
5:15 AM43 °FClear.8 mph39%30.36 "Hg10 mi
Weather by CustomWeather, © 2014

See weather overviewHow to use our weather pages